CAPE
2 1 2 2 1 76 95 53 0 0 0 0 0 0 0 0 0 0 0 0 3 2 2 2 2 1 3 4 3 5 5 5 8
5 3 0 0 52 91 110 6 0 0 0 0 0 0 0 0 0 0 0 0 0 0 0 0 2 2 2 3 3 5 5 8 8
3 1 31 56 98 115 87 3 0 0 0 0 0 0 0 0 0 0 0 0 0 0 0 0 1 1 2 3 3 5 4 5 7
96 90 60 93 126 118 68 2 0 0 0 0 0 0 0 0 0 0 0 0 0 0 0 0 0 1 1 2 1 3 4 8 8
23 28 34 53 77 62 13 0 0 0 0 0 0 0 0 0 0 0 0 0 0 0 0 0 0 1 1 1 2 3 3 5 4
0 0 8 3 14 8 0 0 0 0 0 0 0 0 0 0 0 0 0 0 0 0 0 0 0 0 0 1 2 1 2 3 4
0 0 0 0 0 0 0 0 0 0 0 0 0 0 0 0 0 0 0 0 0 0 0 0 0 0 0 1 1 1 3 2 2
0 0 0 0 0 0 0 0 0 0 0 0 0 0 0 0 0 0 0 0 0 0 0 0 0 0 0 0 1 0 2 0 1
0 0 0 0 0 0 0 0 0 0 0 0 0 0 0 0 0 0 0 0 0 0 0 0 0 0 0 0 0 0 1 0 1
0 0 0 0 0 0 0 0 0 0 0 0 0 0 0 0 0 0 0 0 8 0 0 0 0 0 0 0 0 0 0 0 0
0 0 0 0 0 0 0 0 0 0 0 0 0 0 0 0 0 0 0 0 0 53 54 1 0 0 0 0 0 0 0 0 0
33 10 7 10 6 6 12 13 9 3 0 0 0 0 0 0 0 0 0 0 0 0 39 111 74 62 9 2 0 0 0 0 0
81 59 44 32 25 23 25 26 15 0 0 0 0 0 0 0 0 0 0 0 0 0 0 0 42 86 116 93 65 15 0 0 0
33 82 80 72 62 45 47 34 3 0 0 0 0 0 0 0 0 0 0 0 0 0 0 0 0 0 17 60 72 87 49 9 1
18 23 38 39 59 50 22 6 0 0 0 0 0 0 0 0 0 0 0 0 0 0 0 0 0 0 1 12 38 39 36 58 68
0 0 2 17 31 5 0 0 0 0 0 0 0 0 0 0 0 0 0 0 0 0 0 1 2 0 0 0 0 0 4 20 49
0 0 0 0 0 0 0 0 0 1 1 21 9 3 1 0 0 0 0 0 0 0 0 0 0 0 0 0 0 0 0 0 5
32 20 46 19 0 0 0 0 0 4 21 21 51 27 32 19 0 0 0 0 0 0 0 0 0 0 0 0 0 0 0 0 1
187 125 102 100 78 37 17 4 0 11 18 15 13 5 10 34 16 0 0 0 0 0 0 0 0 0 0 0 0 0 0 0 0
339 276 181 137 156 188 171 98 3 39 39 23 21 12 7 11 27 3 0 0 0 0 0 0 0 0 0 0 0 0 0 0 0
CIN
-0 0 -0 -0 -14 -127 -115 -44 0 0 0 0 0 0 0 0 0 0 0 0 0 -0 0 -0 -0 -0 -0 -0 0 -0 -0 -0 -0
0 -0 0 0 -179 -119 -109 -4 0 0 0 0 0 0 0 0 0 0 0 0 0 0 0 -0 -0 -0 -0 0 0 -0 -0 -0 -0
-0 0 -209 -184 -129 -106 -133 -8 0 0 0 0 0 0 0 0 0 0 0 0 0 0 0 0 0 -0 -0 -0 0 -0 -0 -0 -1
-112 -124 -164 -135 -104 -122 -185 -12 0 0 0 0 0 0 0 0 0 0 0 0 0 0 0 0 0 0 0 -0 -0 0 -0 -0 -0
-182 -204 -217 -215 -185 -202 -101 0 0 0 0 0 0 0 0 0 0 0 0 0 0 0 0 0 0 -0 -0 0 0 -0 0 0 -0
0 0 -103 -43 -153 -107 0 0 0 0 0 0 0 0 0 0 0 0 0 0 0 0 0 0 0 0 0 -0 -0 0 -0 -0 0
0 0 0 0 0 0 0 0 0 0 0 0 0 0 0 0 0 0 0 0 0 0 0 0 0 0 0 0 -0 -0 0 -0 -0
0 0 0 0 0 0 0 0 0 0 0 0 0 0 0 0 0 0 0 0 0 0 0 0 0 0 0 -0 0 0 -0 -0 0
0 0 0 0 0 0 0 0 0 0 0 0 0 0 0 0 0 0 0 0 0 0 0 0 0 0 0 0 0 -0 0 0 -0
0 0 0 0 0 0 0 0 0 0 0 0 0 0 0 0 0 0 0 0 -10 0 0 0 0 0 0 0 0 0 0 0 0
0 0 0 0 0 0 0 0 0 0 0 0 0 0 0 0 0 0 0 0 0 -5 -3 0 0 0 0 0 0 0 0 0 0
-241 -289 -289 -291 -283 -284 -250 -232 -242 -253 0 0 0 0 0 0 0 0 0 0 0 0 -15 -26 -0 -0 -0 -2 0 0 0 0 0
-239 -244 -248 -250 -266 -264 -236 -210 -206 0 0 0 0 0 0 0 0 0 0 0 0 0 0 0 -7 -4 -0 -1 -1 -5 0 0 0
-310 -248 -233 -234 -226 -229 -223 -224 -135 0 0 0 0 0 0 0 0 0 0 0 0 0 0 0 0 0 -21 -7 -5 -1 -1 -17 -12
-335 -316 -266 -262 -217 -201 -240 -253 0 0 0 0 0 0 0 0 0 0 0 0 0 0 0 0 0 0 -11 -49 -32 -13 -7 -8 -7
0 0 -317 -259 -210 -221 -98 0 0 0 0 0 0 0 0 0 0 0 0 0 0 0 0 -14 -119 0 -0 -0 -0 -0 -37 -18 -6
0 0 0 0 0 0 0 0 0 -46 -39 -112 -136 -99 -23 0 0 0 0 0 0 0 0 0 0 0 0 0 0 0 0 0 -35
-196 -189 -166 -174 0 0 0 0 0 -89 -105 -121 -40 -39 -34 -83 0 0 0 0 0 0 0 0 0 0 0 0 0 0 0 0 -32
-134 -133 -138 -112 -126 -103 -109 -77 0 -62 -36 -39 -39 -54 -30 -21 -20 0 0 0 0 0 0 0 0 0 0 0 0 0 0 0 0
-83 -83 -80 -90 -80 -63 -41 -50 -10 -11 -8 -13 -14 -12 -11 -9 -0 -18 -4 0 0 0 0 0 0 0 0 0 0 0 0 0 0
Wind_Speed
17 18 19 20 22 22 21 21 19 21 22 22 22 23 23 23 23 24 25 25 26 26 27 27 27 28 28 28 28 28 29 29 29
16 18 19 20 21 21 20 20 19 20 21 21 22 23 23 23 23 23 25 25 26 27 27 27 27 28 28 28 28 28 28 28 29
17 18 19 19 20 20 19 19 18 18 19 20 21 22 22 23 23 23 24 25 26 26 26 26 27 27 27 27 27 27 27 27 27
16 18 18 19 19 18 18 17 17 17 18 19 19 20 21 22 22 22 23 24 25 25 25 26 26 26 26 26 26 26 26 26 26
15 16 17 18 17 17 16 15 15 16 16 17 18 19 19 20 21 21 22 23 23 24 25 25 25 26 26 25 25 25 25 25 25
14 15 16 16 17 16 16 14 13 14 15 15 16 17 18 19 19 20 21 22 22 23 24 24 24 25 25 25 24 24 24 24 24
13 13 14 14 14 14 14 13 12 12 13 15 16 15 16 17 18 19 19 20 21 22 22 23 23 24 24 24 24 23 23 23 23
11 10 10 10 10 11 11 11 12 12 13 14 15 15 14 15 16 17 17 18 19 20 21 21 22 22 23 22 22 22 22 21 21
8 8 8 8 9 9 10 11 12 13 14 15 14 15 13 12 13 14 15 16 17 18 19 19 20 21 21 21 21 20 20 20 20
7 6 7 7 8 9 10 10 12 14 15 14 14 14 12 11 11 12 12 13 15 16 17 18 18 19 19 19 19 19 19 19 19
5 5 5 6 7 9 9 10 12 15 17 16 15 13 12 12 10 11 12 12 13 14 14 15 16 17 17 17 17 17 17 17 17
3 2 4 6 7 9 11 13 15 16 15 16 16 13 13 12 11 11 12 12 12 14 14 14 14 14 16 14 13 14 14 14 15
1 3 4 6 8 10 11 14 16 16 15 16 16 16 16 13 12 12 12 13 13 13 13 15 15 16 15 14 13 11 11 10 11
3 3 5 7 9 10 12 14 16 16 16 17 18 17 17 15 14 14 13 13 14 15 15 14 16 17 18 18 17 14 9 7 7
4 5 7 9 10 12 14 14 15 18 19 19 19 19 17 17 16 15 15 15 15 14 14 15 16 19 20 22 22 21 17 8 3
7 9 9 9 9 10 11 14 15 18 19 21 22 22 20 20 20 20 20 18 18 16 15 16 16 19 21 22 22 21 20 20 14
8 10 11 12 12 13 12 13 16 17 18 20 18 22 22 21 22 22 21 21 19 19 16 17 18 18 21 23 23 22 21 20 19
11 11 12 13 15 17 17 16 19 20 18 17 18 21 21 22 21 21 21 19 17 16 17 17 18 20 23 23 24 23 22 21 20
15 16 15 15 15 15 15 18 21 19 20 19 18 22 23 25 27 24 25 20 17 16 17 16 19 21 23 24 24 23 22 21 20
14 15 19 19 19 19 20 27 16 20 23 20 23 20 20 22 23 30 26 22 19 16 19 18 19 21 22 23 24 23 23 21 21
Wind_Direction
78 80 79 80 83 81 74 63 53 61 60 55 53 51 48 46 43 42 41 42 43 44 44 45 46 44 43 42 42 41 41 43 45
82 83 83 83 84 81 72 62 54 58 59 54 54 54 50 48 44 39 41 41 43 45 45 46 46 47 46 45 44 43 41 42 43
86 86 84 84 85 82 73 65 56 55 57 54 54 53 50 47 43 40 41 43 45 46 46 47 48 49 48 46 44 42 40 41 42
83 88 83 85 84 81 74 66 55 50 55 54 50 48 49 47 43 42 42 45 45 45 46 46 47 48 47 46 44 43 41 40 39
83 84 84 84 81 79 72 62 52 47 45 49 51 47 43 46 46 44 44 43 42 43 46 45 46 45 46 46 45 43 41 38 38
86 85 83 82 82 79 73 60 47 44 36 29 40 44 40 41 44 44 45 42 40 41 43 43 44 45 45 45 45 44 41 39 37
86 83 80 76 73 69 62 51 36 24 22 18 18 30 41 37 42 44 46 45 42 40 39 40 39 40 42 43 44 43 40 39 36
87 80 71 63 57 46 34 26 15 9 6 9 6 16 40 36 39 45 47 44 41 38 35 36 36 36 37 40 42 44 41 39 39
87 80 69 58 46 35 24 18 14 3 355 354 8 14 35 44 45 46 45 40 37 35 31 32 32 31 37 41 41 44 41 39 40
86 71 57 47 35 25 17 13 5 354 350 356 2 10 25 37 36 33 38 35 33 29 26 26 28 31 33 35 38 41 41 39 38
90 61 40 17 13 7 8 8 357 347 341 342 351 1 9 13 21 22 22 24 21 22 23 24 25 26 26 30 33 37 40 39 36
93 39 1 359 355 346 341 340 338 337 342 340 341 352 357 1 6 9 6 6 9 7 11 16 18 23 20 25 29 30 37 37 34
350 321 330 339 337 340 337 333 332 336 339 338 340 338 339 344 350 353 355 355 357 357 2 4 7 10 12 11 11 14 26 35 36
298 306 318 323 323 324 325 325 328 329 331 331 330 331 332 335 339 342 344 345 346 345 349 354 359 2 4 1 1 7 6 17 29
278 296 302 309 312 314 317 321 324 324 324 323 321 321 325 329 328 334 338 340 341 342 343 347 350 353 354 352 352 357 3 13 13
288 299 305 306 304 307 311 317 319 319 320 319 315 315 316 316 318 320 324 329 331 334 337 340 344 349 353 352 350 353 353 352 357
289 297 303 304 304 304 304 309 316 325 319 315 323 315 314 319 322 319 316 322 328 328 332 336 338 347 349 347 347 349 348 347 348
289 296 300 305 305 303 305 307 309 321 323 314 311 314 314 318 329 329 327 324 330 331 329 330 338 340 342 342 341 345 344 344 346
291 293 298 304 307 305 305 307 305 310 312 310 309 306 309 308 310 315 316 324 329 330 324 325 333 334 336 336 338 343 341 342 344
297 298 301 300 305 311 310 308 289 306 301 308 307 312 310 310 313 309 310 315 320 314 313 318 327 331 336 335 336 341 338 339 339